Погода в Шолданештах

Молдова     47°48′48″N   28°47′31″E
темп.,
°C
ветер,
м/с
пор.,
м/с
влажн.,
%
обл.,
%
осадки,
мм/ч
давл.,
гПа
погр.,
м
9 мая, вс
вс900:00+6сз510744 0.0 1021396
03:00+4зсз37810 0.0 1023141
06:00+3зсз23845 0.0 102460
09:00+8сз58660 0.0 1025740
12:00+12ссз68475 0.0 10251688
15:00+14ссз464028 0.0 10252318
18:00+14ссз344151 0.0 10252019
21:00+10вюв11543 0.0 102610
10 мая, пн
пн1000:00+8юв22570 0.0 102717
03:00+7юв22580 0.0 102716
06:00+6юв22622 0.0 102719
09:00+12юв45535 0.0 1027373
12:00+16юв44445 0.0 10261440
15:00+17ююв33425 0.0 10251682
18:00+17юв22430 0.0 10231571
21:00+12в22590 0.0 102319
11 мая, вт
вт1100:00+10в23640 0.0 102440
03:00+8в35720 0.0 102383
06:00+7всв22730 0.0 102222
09:00+12св45560 0.0 1022492
12:00+16ссв34410 0.0 10201146
15:00+18ссв34475 0.0 10181304
18:00+18св455934 0.0 10171298
21:00+14ссв357999 0.0 101686
12 мая, ср
ср1200:00+13в5886100 0.0 1015444
03:00+10всв4889100 0.0 1014413
06:00+7всв48941 0.0 1014258
09:00+11всв677226 0.0 1013815
12:00+12всв4460100 0.0 10131353
15:00+12всв4360100 0.1 10121083
18:00+13в325620 0.0 10121058
21:00+9вюв347151 0.0 101181
13 мая, чт
чт1300:00+9юв3785100 0.2 1011282
03:00+9юв5108799 0.4 1010381
06:00+8юв3119799 0.0 1010321
09:00+10ююв51195100 1.5 1010586
12:00+10ююв41187100 1.1 1010552
15:00+11юв5888100 1.6 1009537
18:00+15ююв367995 0.0 1008696
21:00+12св2289100 0.2 100814